Location: Unnamed
(48.6007°N, 2.4808°E)
Time: 19:51:34
(UTC+02:00)

DX 1 - Pass Details

Date: 04 April 2023
Orbit: 615 x 625 km, 98.4° (Epoch: 04 June)

Event Time Altitude Azimuth Distance (km) Brightness Sun altitude
Rises 01:39:53 0° 1° (N) 2,899 ? -35.8°
Reaches altitude 10° 01:42:40 10° 342° (NNW) 1,989 ? -35.8°
Enters shadow 01:43:57 15° 326° (NW) 1,700 ? -35.9°
